Antwerp, Belgium

1:03 AM CET on January 23, 2017 (GMT +0100)
Deurne

Weather History for EBAW - October, 2012

Change the Weather History Date:

Friday, October 12, 2012

  Actual Average Record
Temperature  
Mean Temperature 53 °F -  
Max Temperature 58 °F 54 °F 71 °F (2001)
Min Temperature 48 °F 42 °F 35 °F (2015)
Degree Days  
Heating Degree Days 12    
Growing Degree Days 3 (Base 50)    
Moisture  
Dew Point 48 °F    
Average Humidity 78    
Maximum Humidity 100    
Minimum Humidity 51    
Precipitation  
Precipitation 0.00 in - - ()
Sea Level Pressure  
Sea Level Pressure 29.71 in    
Wind  
Wind Speed 9 mph ()    
Max Wind Speed 18 mph    
Max Gust Speed 30 mph    
Visibility 5.5 miles    
Events Rain    
Averages and records for this station are not official NWS values.
T = Trace of Precipitation, MM = Missing Value Source: Averaged Metar Reports

Daily Weather History Graph

Daily Weather History Graph

Search for Another Location

Airport or City:

Trip Planner

Search our weather history database for the weather conditions in past years. The results will help you decide how hot, cold, wet, or windy it might be!

Date:

Astronomy

Oct. 12, 2012 Rise Set
Actual Time 8:01 AM CEST 6:54 PM CEST
Civil Twilight 7:27 AM CEST 7:28 PM CEST
Nautical Twilight 6:49 AM CEST 8:06 PM CEST
Astronomical Twilight 6:10 AM CEST 8:45 PM CEST
Moon 4:06 AM CEST (10/12) 5:12 PM CEST (10/12)
Length of Visible Light 12h 00m
Length of Day
10h 53m
Waning Crescent, 12% of the Moon is Illuminated
Oct 12
Waning Crescent
Oct 15
New
Oct 22
First Quarter
Oct 29
Full
Nov 7
Last Quarter

Hourly Weather History & Observations

Time (CEST) Temp. Dew Point Humidity Pressure Visibility Wind Dir Wind Speed Gust Speed Precip Events Conditions
12:20 AM 53.6 °F 51.8 °F 94% 29.65 in 3.1 mi ESE 6.9 mph - N/A   Overcast
12:50 AM 53.6 °F 51.8 °F 94% 29.62 in 3.1 mi ESE 5.8 mph - N/A   Overcast
1:20 AM 53.6 °F 51.8 °F 94% 29.62 in - ESE 6.9 mph - N/A   Overcast
1:50 AM 53.6 °F 51.8 °F 94% 29.62 in - SE 6.9 mph - N/A   Scattered Clouds
2:00 AM 54 °F 53 °F 93% 29.63 in 3 mi SE 6.7 mph - -   Mist
2:20 AM 55.4 °F 53.6 °F 94% 29.62 in - SE 6.9 mph - N/A   Light Drizzle
2:50 AM 55.4 °F 53.6 °F 94% 29.62 in - SE 8.1 mph - N/A Rain Rain
3:20 AM 55.4 °F 53.6 °F 94% 29.59 in 1.6 mi SSE 8.1 mph - N/A Rain Heavy Rain
3:50 AM 55.4 °F 53.6 °F 94% 29.59 in - SSE 8.1 mph - N/A Rain Light Rain
4:20 AM 55.4 °F 53.6 °F 94% 29.59 in - SSE 8.1 mph - N/A Rain Heavy Rain Showers
4:50 AM 55.4 °F 53.6 °F 94% 29.59 in - SSE 6.9 mph - N/A Rain Rain Showers
5:20 AM 55.4 °F 55.4 °F 100% 29.59 in - South 5.8 mph - N/A Rain Light Rain Showers
5:50 AM 57.2 °F 55.4 °F 94% 29.56 in 3.1 mi South 4.6 mph - N/A   Mostly Cloudy
6:20 AM 57.2 °F 55.4 °F 94% 29.59 in 2.5 mi South 5.8 mph - N/A   Light Drizzle
6:50 AM 59.0 °F 55.4 °F 88% 29.59 in 4.3 mi WSW 8.1 mph - N/A Rain Light Rain
7:20 AM 57.2 °F 55.4 °F 94% 29.59 in 6.2 mi WSW 10.4 mph - N/A   Mostly Cloudy
7:50 AM 57.2 °F 55.4 °F 94% 29.59 in 6.2 mi WSW 6.9 mph - N/A   Mostly Cloudy
8:00 AM 57 °F 54 °F 88% 29.61 in 22 mi WSW 6.7 mph - - Rain Light Rain
8:20 AM 57.2 °F 53.6 °F 88% 29.59 in 6.2 mi WSW 9.2 mph - N/A   Mostly Cloudy
8:50 AM 57.2 °F 53.6 °F 88% 29.62 in 6.2 mi WSW 10.4 mph - N/A   Mostly Cloudy
9:20 AM 57.2 °F 51.8 °F 82% 29.62 in 6.2 mi WSW 15.0 mph - N/A   Scattered Clouds
9:50 AM 55.4 °F 48.2 °F 77% 29.65 in 6.2 mi West 16.1 mph - N/A   Scattered Clouds
10:20 AM 55.4 °F 48.2 °F 77% 29.65 in 6.2 mi West 11.5 mph - N/A   Scattered Clouds
10:50 AM 57.2 °F 50.0 °F 77% 29.68 in 6.2 mi WSW 13.8 mph - N/A   Partly Cloudy
11:00 AM 57 °F 49 °F 68% 29.68 in 22 mi WSW 13.4 mph - -   Partly Cloudy
11:20 AM 57.2 °F 48.2 °F 72% 29.68 in 6.2 mi WSW 11.5 mph 23.0 mph N/A   Scattered Clouds
11:50 AM 57.2 °F 48.2 °F 72% 29.68 in 6.2 mi WSW 13.8 mph - N/A   Mostly Cloudy
12:20 PM 57.2 °F 46.4 °F 67% 29.71 in 6.2 mi WSW 13.8 mph - N/A   Mostly Cloudy
12:50 PM 57.2 °F 44.6 °F 63% 29.71 in 6.2 mi WSW 18.4 mph 29.9 mph N/A   Partly Cloudy
1:20 PM 57.2 °F 46.4 °F 67% 29.71 in 6.2 mi WSW 17.3 mph - N/A   Scattered Clouds
1:50 PM 57.2 °F 46.4 °F 67% 29.71 in 6.2 mi WSW 16.1 mph - N/A   Scattered Clouds
2:00 PM 57 °F 46 °F 57% 29.72 in 22 mi WSW 15.7 mph - -   Mostly Cloudy
2:20 PM 55.4 °F 46.4 °F 72% 29.71 in 6.2 mi WSW 16.1 mph - N/A   Scattered Clouds
2:50 PM 55.4 °F 46.4 °F 72% 29.74 in 6.2 mi WSW 15.0 mph - N/A   Mostly Cloudy
3:20 PM 55.4 °F 46.4 °F 72% 29.74 in 6.2 mi WSW 17.3 mph - N/A Rain Light Rain Showers
3:50 PM 55.4 °F 46.4 °F 72% 29.74 in 6.2 mi West 17.3 mph - N/A   Mostly Cloudy
4:20 PM 55.4 °F 44.6 °F 67% 29.77 in 6.2 mi WSW 18.4 mph - N/A   Mostly Cloudy
4:50 PM 55.4 °F 42.8 °F 63% 29.77 in 6.2 mi West 16.1 mph - N/A   Mostly Cloudy
5:00 PM 56 °F 43 °F 52% 29.78 in 22 mi West 15.7 mph - -   Mostly Cloudy
5:20 PM 57.2 °F 42.8 °F 59% 29.77 in 6.2 mi West 15.0 mph - N/A   Partly Cloudy
5:50 PM 57.2 °F 41.0 °F 55% 29.80 in 6.2 mi WSW 16.1 mph - N/A   Partly Cloudy
6:20 PM 55.4 °F 37.4 °F 51% 29.83 in 6.2 mi West 16.1 mph - N/A   Partly Cloudy
6:50 PM 53.6 °F 39.2 °F 58% 29.83 in 6.2 mi WSW 10.4 mph - N/A   Partly Cloudy
7:20 PM 53.6 °F 41.0 °F 62% 29.83 in 6.2 mi WSW 8.1 mph - N/A   Partly Cloudy
7:50 PM 53.6 °F 41.0 °F 62% 29.83 in 6.2 mi SW 8.1 mph - N/A   Partly Cloudy
8:00 PM 53 °F 41 °F 54% 29.86 in 22 mi SW 6.7 mph - -   Partly Cloudy
8:50 PM 51.8 °F 42.8 °F 71% 29.86 in 6.2 mi SW 9.2 mph - N/A   Partly Cloudy
9:20 PM 51.8 °F 42.8 °F 71% 29.86 in - SW 9.2 mph - N/A   Clear
9:50 PM 50.0 °F 42.8 °F 76% 29.86 in - SW 10.4 mph - N/A   Clear
10:20 PM 50.0 °F 42.8 °F 76% 29.86 in - SW 11.5 mph - N/A   Clear
10:50 PM 50.0 °F 42.8 °F 76% 29.86 in - SSW 10.4 mph - N/A   Clear
11:00 PM 49 °F 44 °F 75% 29.88 in 22 mi SSW 11.2 mph - -   Scattered Clouds
11:20 PM 48.2 °F 42.8 °F 82% 29.86 in - SW 11.5 mph - N/A   Clear
11:50 PM 48.2 °F 42.8 °F 82% 29.86 in - SW 9.2 mph - N/A   Clear